WetterOnline ( http://www.wetteronline.de )

Wetter aktuell Rhön (in 800m)

Aktuelles Wetter: Wasserkuppe (925m)

6-stündlich | Neueste Meldungen
Ortszeit Temperatur Wetter
So, 19.08. 20:00 20.3° C leicht bewölkt
So, 19.08. 14:00 24.5° C fast wolkenlos
So, 19.08. 8:00 17.3° C leicht bewölkt
So, 19.08. 2:00 15.9° C leicht bewölkt
Sa, 18.08. 20:00 19.6° C leicht bewölkt
Sa, 18.08. 14:00 20.0° C wolkig
Sa, 18.08. 8:00 14.9° C leicht bewölkt
Sa, 18.08. 2:00 13.4° C leicht bewölkt
Ortszeit Temperatur Wetter
So, 19.08. 22:30 17.5° C fast wolkenlos
So, 19.08. 22:20 17.5° C wolkig
So, 19.08. 22:10 17.0° C leicht bewölkt
So, 19.08. 22:00 17.0° C fast wolkenlos
So, 19.08. 21:50 17.0° C bedeckt
So, 19.08. 21:40 17.1° C leicht bewölkt
So, 19.08. 21:30 17.3° C leicht bewölkt
So, 19.08. 21:00 17.9° C fast wolkenlos
So, 19.08. 20:30 18.6° C leicht bewölkt
So, 19.08. 20:00 20.3° C leicht bewölkt
So, 19.08. 19:30 22.3° C fast wolkenlos
Ortszeit Relative Feuchte Sichtweite
So, 19.08. 20:00 45% 70 km
So, 19.08. 14:00 31% 70 km
So, 19.08. 8:00 48% 70 km
So, 19.08. 2:00 51% 70 km
Sa, 18.08. 20:00 44% 70 km
Sa, 18.08. 14:00 59% 45 km
Sa, 18.08. 8:00 86% 12 km
Sa, 18.08. 2:00 92% 30 km
Ortszeit Relative Feuchte Sichtweite
So, 19.08. 22:30 53% 70 km
So, 19.08. 22:20 53% -
So, 19.08. 22:10 54% -
So, 19.08. 22:00 56% 70 km
So, 19.08. 21:50 56% -
So, 19.08. 21:40 56% -
So, 19.08. 21:30 55% 70 km
So, 19.08. 21:00 53% 70 km
So, 19.08. 20:30 47% 70 km
So, 19.08. 20:00 45% 70 km
So, 19.08. 19:30 39% 70 km
Ortszeit Niederschlagsmenge Niederschlagsart
So, 19.08. 20:00 0.0 l/m2 in 12 Std. -
So, 19.08. 14:00 0.0 l/m2 in 6 Std. -
So, 19.08. 8:00 0.0 l/m2 in 12 Std. -
So, 19.08. 2:00 0.0 l/m2 in 6 Std. -
Sa, 18.08. 20:00 0.0 l/m2 in 12 Std. -
Sa, 18.08. 14:00 0.0 l/m2 in 6 Std. -
Sa, 18.08. 8:00 0.0 l/m2 in 12 Std. -
Sa, 18.08. 2:00 0.0 l/m2 in 6 Std. Gewitter
Ortszeit Niederschlagsmenge Niederschlagsart
So, 19.08. 22:30 0.0 l/m2 in 1 Std. -
So, 19.08. 22:20 keine Meldung -
So, 19.08. 22:10 keine Meldung -
So, 19.08. 22:00 0.0 l/m2 in 1 Std. -
So, 19.08. 21:50 keine Meldung -
So, 19.08. 21:40 keine Meldung -
So, 19.08. 21:30 0.0 l/m2 in 1 Std. -
So, 19.08. 21:00 0.0 l/m2 in 1 Std. -
So, 19.08. 20:30 0.0 l/m2 in 1 Std. -
So, 19.08. 20:00 0.0 l/m2 in 1 Std. -
So, 19.08. 19:30 0.0 l/m2 in 1 Std. -
Ortszeit Stärke Spitze Richtung
km/h Bft. km/h Grad Sektor
So, 19.08. 20:00 18 3 40 230° SW
So, 19.08. 14:00 19 3 31 250° W
So, 19.08. 8:00 9 2 15 250° W
So, 19.08. 2:00 9 2 20 350° N
Sa, 18.08. 20:00 11 2 29 300° NW
Sa, 18.08. 14:00 9 2 19 270° W
Sa, 18.08. 8:00 4 1 29 110° O
Sa, 18.08. 2:00 26 4 44 10° N
Ortszeit Stärke Spitze Richtung
km/h Bft. km/h Grad Sektor
So, 19.08. 22:30 14 3 22 250° W
So, 19.08. 22:20 14 3 - 250° W
So, 19.08. 22:10 18 3 - 240° SW
So, 19.08. 22:00 17 3 22 240° SW
So, 19.08. 21:50 17 3 - 240° SW
So, 19.08. 21:40 17 3 - 230° SW
So, 19.08. 21:30 18 3 22 230° SW
So, 19.08. 21:00 19 3 24 230° SW
So, 19.08. 20:30 18 3 25 230° SW
So, 19.08. 20:00 18 3 29 230° SW
So, 19.08. 19:30 20 4 30 250° W
Ortszeit Untergrenze Bedeckung Gattung
total tief tief mittel hoch
So, 19.08. 20:00 9000 m 2/8 0/8 - - Ci
So, 19.08. 14:00 9000 m 1/8 0/8 - - Ci
So, 19.08. 8:00 8100 m 4/8 0/8 - - Ci
So, 19.08. 2:00 9000 m 5/8 0/8 - - Ci
Sa, 18.08. 20:00 1290 m 4/8 1/8 Cu - Ci
Sa, 18.08. 14:00 720 m 6/8 5/8 Cu - Ci
Sa, 18.08. 8:00 1080 m 3/8 2/8 Sc - Ci
Sa, 18.08. 2:00 2700 m 5/8 1/8 - Ac Ci
Ortszeit Bedeckungsgrad in Achtel und Wolkenuntergrenze
So, 19.08. 22:30 1(9000m)
So, 19.08. 22:20 7(10500m)
So, 19.08. 22:10 1(3000m) 6(10500m)
So, 19.08. 22:00 1(9000m) 5(10500m)
So, 19.08. 21:50 9 9 9
So, 19.08. 21:40 2(2700m)
So, 19.08. 21:30 1(3300m) 3(10500m)
So, 19.08. 21:00 1(9000m) 2(3000m) 5(10500m)
So, 19.08. 20:30 2(9000m)
So, 19.08. 20:00 2(9000m)
So, 19.08. 19:30 1(9000m)
Ortszeit Stationsdruck (hPa) Tendenz (hPa in 3 Std.)
So, 19.08. 20:00 915 - 0,6
So, 19.08. 14:00 917 - 0,5
So, 19.08. 8:00 917 + 0,1
So, 19.08. 2:00 917 - 0,3
Sa, 18.08. 20:00 917 + 0,1
Sa, 18.08. 14:00 917 + 0,2
Sa, 18.08. 8:00 916 + 0,6
Sa, 18.08. 2:00 915 + 0,6
Ortszeit Stationsdruck (hPa) Tendenz (hPa in 3 Std.)
So, 19.08. 22:30 915 - 0,1
So, 19.08. 22:20 915 keine Meldung
So, 19.08. 22:10 915 keine Meldung
So, 19.08. 22:00 915 - 0,1
So, 19.08. 21:50 915 keine Meldung
So, 19.08. 21:40 915 keine Meldung
So, 19.08. 21:30 915 - 0,2
So, 19.08. 21:00 915 - 0,4
So, 19.08. 20:30 915 - 0,4
So, 19.08. 20:00 915 - 0,6
So, 19.08. 19:30 915 - 0,7
Ortszeit Schneehöhe (cm)
So, 19.08. 20:00 0
So, 19.08. 14:00 0
So, 19.08. 8:00 0
So, 19.08. 2:00 0
Sa, 18.08. 20:00 0
Sa, 18.08. 14:00 0
Sa, 18.08. 8:00 0
Sa, 18.08. 2:00 0
Ortszeit Schneehöhe (cm)
So, 19.08. 22:30 -
So, 19.08. 22:20 -
So, 19.08. 22:10 -
So, 19.08. 22:00 -
So, 19.08. 21:50 -
So, 19.08. 21:40 -
So, 19.08. 21:30 -
So, 19.08. 21:00 -
So, 19.08. 20:30 -
So, 19.08. 20:00 0
So, 19.08. 19:30 -
Link zu dieser Seite / Seite empfehlen

Das Wetter in ...